GW1230 Weather Reports


time (UTC)temp
F
wind
direction
speed
knots
gust
knots
rain 1hr
in
rain 24hr
in
rain mn
in
humidity
%
barometer
mb
20260906013157 70 300 0.9 2.6 0.00 0.00 0.00 52 1016.3
20260906012657 71 278 0.0 0.9 0.00 0.00 0.00 50 1016.3
20260906012152 71 294 0.9 0.9 0.00 0.00 0.00 52 1016.3
20260906011648 72 303 0.9 0.9 0.00 0.00 0.00 51 1016.3
20260906011142 71 294 2.6 4.3 0.00 0.00 0.00 52 1016.2
20260906010637 72 278 3.5 4.3 0.00 0.00 0.00 52 1016.2
20260906010134 71 254 0.0 0.0 0.00 0.00 0.00 52 1016.1
20260906005633 70 266 4.3 5.2 0.00 0.00 0.00 54 1016.3
20260906005127 72 338 2.6 2.6 0.00 0.00 0.00 52 1016.0
20260906004626 73 306 0.9 0.9 0.00 0.00 0.00 50 1016.2
20260906004121 72 262 0.0 0.9 0.00 0.00 0.00 52 1016.2
20260906003616 73 198 2.6 2.6 0.00 0.00 0.00 52 1016.0
20260906003112 72 243 0.9 0.9 0.00 0.00 0.00 52 1016.0
20260906002607 71 210 0.0 0.0 0.00 0.00 0.00 54 1016.2
20260906002101 71 285 0.9 1.7 0.00 0.00 0.00 55 1016.1
20260906001556 71 156 3.5 4.3 0.00 0.00 0.00 55 1016.1
20260906001051 70 221 0.0 0.0 0.00 0.00 0.00 54 1016.2
20260906000547 70 200 3.5 4.3 0.00 0.00 0.00 54 1016.2
20260906000042 70 163 0.9 1.7 0.00 0.00 0.00 54 1016.1
20260905235541 70 206 1.7 1.7 0.00 0.00 0.00 54 1016.1
20260905235037 71 212 0.9 1.7 0.00 0.00 0.00 54 1016.2
20260905234532 71 276 0.0 0.0 0.00 0.00 0.00 55 1016.2
20260905234027 71 242 0.0 0.0 0.00 0.00 0.00 56 1016.4
20260905233522 70 215 2.6 2.6 0.00 0.00 0.00 58 1016.2
20260905233021 70 15 1.7 1.7 0.00 0.00 0.00 59 1016.0
20260905232517 70 118 0.0 0.9 0.00 0.00 0.00 60 1016.3
20260905232013 71 69 0.0 0.0 0.00 0.00 0.00 58 1016.3
20260905231508 71 78 0.0 0.9 0.00 0.00 0.00 59 1016.4
20260905231004 71 124 0.0 0.9 0.00 0.00 0.00 57 1016.4
20260905230503 70 261 0.0 0.9 0.00 0.00 0.00 57 1016.4
20260905230001 70 184 0.0 0.0 0.00 0.00 0.00 57 1016.6
20260905225456 70 155 1.7 2.6 0.00 0.00 0.00 61 1016.4
20260905224951 69 203 0.0 0.0 0.00 0.00 0.00 60 1016.5
20260905224446 70 187 3.5 5.2 0.00 0.00 0.00 60 1016.7
20260905223945 72 256 0.0 0.0 0.00 0.00 0.00 57 1016.5
20260905223443 70 221 0.0 0.0 0.00 0.00 0.00 60 1016.8
20260905222943 69 157 2.6 2.6 0.00 0.00 0.00 58 1016.8
20260905222438 67 214 0.9 1.7 0.00 0.00 0.00 62 1016.6
20260905221934 67 216 0.0 0.9 0.00 0.00 0.00 64 1016.8
20260905221430 67 143 0.0 0.0 0.00 0.00 0.00 63 1016.9
20260905220926 67 173 1.7 2.6 0.00 0.00 0.00 64 1017.0
20260905220422 67 239 0.9 1.7 0.00 0.00 0.00 65 1017.0
20260905215921 66 260 1.7 1.7 0.00 0.00 0.00 66 1017.1
20260905215416 66 197 2.6 4.3 0.00 0.00 0.00 66 1016.9
20260905214913 66 214 4.3 4.3 0.00 0.00 0.00 65 1017.1
20260905214409 66 200 4.3 5.2 0.00 0.00 0.00 65 1017.3
20260905213908 67 170 4.3 6.1 0.00 0.00 0.00 65 1017.2
20260905213405 67 285 0.0 0.0 0.00 0.00 0.00 65 1017.1
20260905212900 67 259 0.0 0.0 0.00 0.00 0.00 65 1017.3
20260905212400 67 181 4.3 5.2 0.00 0.00 0.00 65 1017.0
20260905211853 67 220 0.9 0.9 0.00 0.00 0.00 66 1017.1
20260905211349 67 245 0.9 1.7 0.00 0.00 0.00 67 1017.4
20260905210846 66 227 2.6 2.6 0.00 0.00 0.00 67 1017.2
20260905210345 67 202 2.6 4.3 0.00 0.00 0.00 68 1017.3
20260905205844 65 236 5.2 6.1 0.00 0.00 0.00 70 1017.2
20260905205339 66 241 0.0 1.7 0.00 0.00 0.00 69 1017.3
20260905204838 66 310 1.7 1.7 0.00 0.00 0.00 68 1017.2
20260905204335 66 218 3.5 4.3 0.00 0.00 0.00 69 1017.1
20260905203833 68 274 0.9 1.7 0.00 0.00 0.00 67 1017.4
20260905203329 68 221 2.6 4.3 0.00 0.00 0.00 66 1017.5
20260905202825 68 183 0.9 1.7 0.00 0.00 0.00 65 1017.4
20260905202320 67 275 3.5 7.0 0.00 0.00 0.00 66 1017.3
20260905201815 67 212 1.7 2.6 0.00 0.00 0.00 68 1017.4
20260905201310 67 199 3.5 4.3 0.00 0.00 0.00 66 1017.5
20260905200804 66 278 2.6 4.3 0.00 0.00 0.00 70 1017.6
20260905200300 66 268 3.5 5.2 0.00 0.00 0.00 69 1017.4
20260905195753 66 264 0.0 0.0 0.00 0.00 0.00 70 1017.4
20260905195248 67 244 1.7 4.3 0.00 0.00 0.00 68 1017.5
20260905194744 66 264 2.6 2.6 0.00 0.00 0.00 71 1017.5
20260905194243 65 268 3.5 6.1 0.00 0.00 0.00 71 1017.7
20260905193743 66 246 4.3 5.2 0.00 0.00 0.00 71 1017.6
20260905193238 67 216 2.6 4.3 0.00 0.00 0.00 70 1017.7
20260905192733 66 298 4.3 5.2 0.00 0.00 0.00 71 1017.5
20260905192230 66 238 1.7 1.7 0.00 0.00 0.00 72 1017.9
20260905191728 66 225 3.5 4.3 0.00 0.00 0.00 71 1017.6
20260905191227 67 194 1.7 1.7 0.00 0.00 0.00 71 1017.8
20260905190726 67 278 3.5 5.2 0.00 0.00 0.00 68 1017.8
20260905190225 67 249 1.7 2.6 0.00 0.00 0.00 69 1017.6
20260905185724 67 311 1.7 1.7 0.00 0.00 0.00 68 1017.7
20260905185219 68 263 3.5 5.2 0.00 0.00 0.00 68 1017.8
20260905184713 67 233 1.7 1.7 0.00 0.00 0.00 70 1017.9
20260905184212 67 252 0.9 1.7 0.00 0.00 0.00 71 1017.7
20260905183711 67 246 1.7 1.7 0.00 0.00 0.00 71 1017.8
20260905183207 66 227 2.6 2.6 0.00 0.00 0.00 72 1018.2
20260905182701 66 294 0.9 0.9 0.00 0.00 0.00 72 1018.0
20260905182201 65 270 0.9 1.7 0.00 0.00 0.00 74 1018.0
20260905181656 65 204 2.6 2.6 0.00 0.00 0.00 74 1018.1
20260905181155 64 227 3.5 5.2 0.00 0.00 0.00 76 1018.0
20260905180649 65 329 4.3 5.2 0.00 0.00 0.00 74 1018.1
20260905180145 63 312 0.0 0.9 0.00 0.00 0.00 78 1018.1
20260905175644 63 273 0.9 0.9 0.00 0.00 0.00 78 1018.3
20260905175139 62 324 1.7 1.7 0.00 0.00 0.00 79 1018.3
20260905174635 63 309 0.9 0.9 0.00 0.00 0.00 79 1018.3
20260905174131 62 286 0.9 0.9 0.00 0.00 0.00 79 1018.4
20260905173626 63 281 1.7 1.7 0.00 0.00 0.00 78 1018.2
20260905173122 64 290 0.9 0.9 0.00 0.00 0.00 77 1018.1
20260905172621 65 307 2.6 4.3 0.00 0.00 0.00 76 1018.4
20260905172116 65 277 2.6 4.3 0.00 0.00 0.00 75 1018.1
20260905171612 63 168 0.9 0.9 0.00 0.00 0.00 78 1018.1
20260905171108 63 209 1.7 1.7 0.00 0.00 0.00 78 1018.2
20260905170604 62 272 0.9 0.9 0.00 0.00 0.00 80 1017.9
20260905170059 62 242 1.7 2.6 0.00 0.00 0.00 80 1018.0
20260905165554 62 280 0.9 1.7 0.00 0.00 0.00 81 1017.7
20260905165049 62 208 1.7 1.7 0.00 0.00 0.00 82 1017.7
20260905164544 61 239 1.7 1.7 0.00 0.00 0.00 84 1017.9
20260905164038 60 196 3.5 4.3 0.00 0.00 0.00 85 1017.9
20260905163534 59 271 0.0 0.0 0.00 0.00 0.00 86 1017.9
20260905163030 59 282 0.0 0.0 0.00 0.00 0.00 87 1017.9
20260905162527 58 279 0.0 0.0 0.00 0.00 0.00 87 1018.0
20260905162021 59 257 0.0 0.0 0.00 0.00 0.00 87 1018.0
20260905161521 58 285 0.0 0.0 0.00 0.00 0.00 89 1018.0
20260905161018 57 229 1.7 1.7 0.00 0.00 0.00 89 1018.0
20260905160511 57 273 1.7 2.6 0.00 0.00 0.00 89 1017.9
20260905160011 58 251 2.6 2.6 0.00 0.00 0.00 89 1018.0
20260905155506 58 257 0.0 0.9 0.00 0.00 0.00 91 1017.9
20260905155004 58 206 0.9 1.7 0.00 0.00 0.00 92 1017.8
20260905154500 57 231 0.0 0.0 0.00 0.00 0.00 93 1017.9
20260905153955 56 236 1.7 1.7 0.00 0.00 0.00 93 1018.0
20260905153452 57 262 0.0 0.0 0.00 0.00 0.00 94 1017.9
20260905152951 56 271 0.0 0.0 0.00 0.00 0.00 95 1017.9
20260905152451 56 284 0.0 0.0 0.00 0.00 0.00 95 1018.0
20260905151946 56 288 0.0 0.0 0.00 0.00 0.00 95 1017.7
20260905151441 55 294 0.0 0.0 0.00 0.00 0.00 96 1017.7
20260905150936 55 293 0.0 0.0 0.00 0.00 0.00 96 1017.8
20260905150431 55 289 0.0 0.0 0.00 0.00 0.00 96 1017.6
20260905145927 55 291 0.0 0.0 0.00 0.00 0.00 96 1017.6
20260905145421 55 291 0.0 0.0 0.00 0.00 0.00 96 1017.3
20260905144921 55 290 0.0 0.0 0.00 0.00 0.00 96 1017.8
20260905144417 54 283 0.0 0.0 0.00 0.00 0.00 96 1017.6
20260905143915 54 293 0.0 0.0 0.00 0.00 0.00 96 1017.6
20260905143410 54 289 0.0 0.0 0.00 0.00 0.00 96 1017.4
20260905142909 54 294 0.0 0.0 0.00 0.00 0.00 96 1017.5
20260905142408 54 293 0.0 0.0 0.00 0.00 0.00 96 1017.3
20260905141904 54 291 0.0 0.0 0.00 0.00 0.00 96 1017.2
20260905141359 54 296 0.0 0.0 0.00 0.00 0.00 96 1017.3
20260905140855 53 294 0.0 0.0 0.00 0.00 0.00 96 1017.2
20260905140350 53 313 0.0 0.0 0.00 0.00 0.00 96 1017.5
20260905135848 53 302 0.0 0.0 0.00 0.00 0.00 96 1017.2
20260905135344 53 299 0.0 0.0 0.00 0.00 0.00 96 1017.2
20260905134839 53 305 0.0 0.0 0.00 0.00 0.00 96 1017.3
20260905134338 53 318 0.0 0.0 0.00 0.00 0.00 96 1017.2
20260905133833 53 321 0.0 0.0 0.00 0.00 0.00 96 1017.2
20260905133328 53 314 0.0 0.0 0.00 0.00 0.00 96 1017.1
20260905132827 54 303 0.0 0.0 0.00 0.00 0.00 96 1017.1
20260905132323 54 302 0.0 0.0 0.00 0.00 0.00 95 1017.4
20260905131817 54 307 0.0 0.0 0.00 0.00 0.00 95 1017.1
20260905131313 54 307 0.0 0.0 0.00 0.00 0.00 95 1017.1
20260905130808 54 306 0.0 0.0 0.00 0.00 0.00 95 1017.1
20260905130306 54 309 0.0 0.0 0.00 0.00 0.00 95 1017.4
20260905125802 53 308 0.0 0.0 0.00 0.00 0.00 95 1017.2
20260905125256 54 313 0.0 0.0 0.00 0.00 0.00 95 1017.1
20260905124753 54 314 0.0 0.0 0.00 0.00 0.00 95 1017.1
20260905124249 54 318 0.0 0.0 0.00 0.00 0.00 95 1017.2
20260905123744 54 327 0.0 0.0 0.00 0.00 0.00 95 1017.1
20260905123241 54 322 0.0 0.0 0.00 0.00 0.00 95 1017.0
20260905122740 54 324 0.0 0.0 0.00 0.00 0.00 95 1017.0
20260905122234 53 314 0.0 0.0 0.00 0.00 0.00 95 1017.0
20260905121729 54 317 0.0 0.0 0.00 0.00 0.00 95 1017.1
20260905121226 54 322 0.0 0.0 0.00 0.00 0.00 95 1017.0
20260905120719 54 325 0.0 0.0 0.00 0.00 0.00 95 1016.9
20260905120213 54 323 0.0 0.0 0.00 0.00 0.00 95 1016.8
20260905115708 54 333 0.0 0.0 0.00 0.00 0.00 95 1016.9
20260905115203 54 340 0.0 0.0 0.00 0.00 0.00 95 1016.7
20260905114703 53 341 0.0 0.0 0.00 0.00 0.00 95 1016.7
20260905114200 53 339 0.0 0.0 0.00 0.00 0.00 95 1016.9
20260905113655 53 319 0.0 0.0 0.00 0.00 0.00 94 1017.1
20260905113151 53 312 0.0 0.0 0.00 0.00 0.00 94 1016.9
20260905112651 53 308 0.0 0.0 0.00 0.00 0.00 94 1016.9
20260905112147 54 304 0.0 0.0 0.00 0.00 0.00 94 1017.2
20260905111646 54 307 0.0 0.0 0.00 0.00 0.00 94 1016.9
20260905111146 54 309 0.0 0.0 0.00 0.00 0.00 94 1016.7
20260905110645 54 314 0.0 0.0 0.00 0.00 0.00 94 1016.8
20260905110140 54 308 0.0 0.0 0.00 0.00 0.00 94 1016.8
20260905105635 54 306 0.0 0.0 0.00 0.00 0.00 94 1016.8
20260905105134 54 316 0.0 0.0 0.00 0.00 0.00 93 1016.9
20260905104629 54 317 0.0 0.0 0.00 0.00 0.00 93 1016.8
20260905104125 54 317 0.0 0.0 0.00 0.00 0.00 93 1016.9
20260905103620 55 335 0.0 0.0 0.00 0.00 0.00 93 1016.9
20260905103116 55 334 0.0 0.0 0.00 0.00 0.00 93 1016.9
20260905102611 55 318 0.0 0.0 0.00 0.00 0.00 93 1016.7
20260905102108 55 321 0.0 0.0 0.00 0.00 0.00 93 1017.0
20260905101606 55 317 0.0 0.0 0.00 0.00 0.00 93 1016.7
20260905101104 55 321 0.0 0.0 0.00 0.00 0.00 93 1016.7
20260905100601 55 337 0.0 0.0 0.00 0.00 0.00 93 1016.6
20260905100055 55 325 0.0 0.0 0.00 0.00 0.00 93 1016.6
20260905095549 55 328 0.0 0.0 0.00 0.00 0.00 93 1016.4
20260905095045 55 345 0.0 0.0 0.00 0.00 0.00 93 1016.6
20260905094539 55 324 0.0 0.0 0.00 0.00 0.00 92 1016.3
20260905094039 55 318 0.0 0.0 0.00 0.00 0.00 92 1016.7
20260905093533 55 313 0.0 0.0 0.00 0.00 0.00 92 1016.5
20260905093030 55 315 0.0 0.0 0.00 0.00 0.00 92 1016.5
20260905092529 55 318 0.0 0.0 0.00 0.00 0.00 91 1016.6
20260905092025 55 323 0.0 0.0 0.00 0.00 0.00 91 1016.5
20260905091524 56 346 0.0 0.0 0.00 0.00 0.00 91 1016.5
20260905091019 56 328 0.0 0.0 0.00 0.00 0.00 91 1016.3
20260905090519 56 0 0.0 0.0 0.00 0.00 0.00 90 1016.2
20260905090014 56 12 0.0 0.0 0.00 0.00 0.00 90 1016.2
20260905085512 56 346 0.0 0.0 0.00 0.00 0.00 90 1016.2
20260905085008 56 353 0.0 0.0 0.00 0.00 0.00 90 1016.6
20260905084503 56 358 0.0 0.0 0.00 0.00 0.00 89 1016.2
20260905083958 57 346 0.0 0.0 0.00 0.00 0.00 89 1016.2
20260905083453 56 356 0.0 0.9 0.00 0.00 0.00 89 1016.4
20260905082949 57 46 0.0 0.0 0.00 0.00 0.00 88 1016.3
20260905082444 57 79 0.9 0.9 0.00 0.00 0.00 88 1016.3
20260905081939 57 68 0.9 1.7 0.00 0.00 0.00 88 1016.4
20260905081434 57 63 0.0 0.0 0.00 0.00 0.00 87 1016.3
20260905080933 57 341 0.0 0.0 0.00 0.00 0.00 87 1016.4
20260905080428 57 28 0.9 0.9 0.00 0.00 0.00 86 1016.3
20260905075927 57 26 0.9 0.9 0.00 0.00 0.00 86 1016.3
20260905075422 57 10 0.0 0.0 0.00 0.00 0.00 86 1016.2
20260905074921 57 351 0.9 0.9 0.00 0.00 0.00 86 1016.2
20260905074416 57 25 1.7 2.6 0.00 0.00 0.00 86 1016.0
20260905073912 57 25 0.9 1.7 0.00 0.00 0.00 86 1016.0
20260905073407 57 26 1.7 1.7 0.00 0.00 0.00 86 1016.2
20260905072903 57 20 1.7 1.7 0.00 0.00 0.00 85 1016.2
20260905072356 57 358 2.6 2.6 0.00 0.00 0.00 86 1016.1
20260905071852 58 323 0.0 0.0 0.00 0.00 0.00 86 1016.0
20260905071343 58 350 1.7 1.7 0.00 0.00 0.00 86 1016.1
20260905070837 58 336 0.0 0.9 0.00 0.00 0.00 86 1016.3
20260905070334 58 315 0.9 0.9 0.00 0.00 0.00 85 1015.9
20260905065833 58 344 2.6 2.6 0.00 0.00 0.00 85 1016.0
20260905065331 58 326 0.0 0.0 0.00 0.00 0.00 84 1015.9
20260905064827 58 336 0.0 0.0 0.00 0.00 0.00 84 1016.0
20260905064323 58 302 0.9 0.9 0.00 0.00 0.00 84 1015.8
20260905063820 58 318 0.0 0.0 0.00 0.00 0.00 83 1015.7
20260905063316 58 315 0.0 0.0 0.00 0.00 0.00 83 1015.9
20260905062813 58 327 0.9 0.9 0.00 0.00 0.00 83 1015.8
20260905062307 58 317 0.0 0.0 0.00 0.00 0.00 84 1015.8
20260905061802 58 323 0.9 0.9 0.00 0.00 0.00 83 1015.7
20260905061256 58 322 0.9 0.9 0.00 0.00 0.00 83 1016.1
20260905060750 58 295 0.0 0.0 0.00 0.00 0.00 83 1015.9
20260905060248 59 324 0.0 0.0 0.00 0.00 0.00 83 1015.9
20260905055746 59 357 0.9 0.9 0.00 0.00 0.00 82 1015.8
20260905055241 59 350 3.5 4.3 0.00 0.00 0.00 82 1016.0
20260905054736 59 327 0.0 0.0 0.00 0.00 0.00 81 1016.0
20260905054232 59 331 0.0 0.9 0.00 0.00 0.00 80 1015.6
20260905053731 59 326 0.9 1.7 0.00 0.00 0.00 80 1015.9
20260905053226 59 339 0.9 0.9 0.00 0.00 0.00 80 1015.6
20260905052721 59 348 1.7 1.7 0.00 0.00 0.00 80 1015.5
20260905052216 59 350 0.9 0.9 0.00 0.00 0.00 80 1015.6
20260905051715 59 8 0.0 0.0 0.00 0.00 0.00 80 1015.5
20260905051212 59 359 0.0 0.0 0.00 0.00 0.00 80 1015.7
20260905050708 59 27 0.0 0.0 0.00 0.00 0.00 79 1015.8
20260905050205 60 353 0.0 0.0 0.00 0.00 0.00 79 1015.6
20260905045704 60 10 0.0 0.0 0.00 0.00 0.00 79 1015.6
20260905045200 60 24 2.6 4.3 0.00 0.00 0.00 79 1015.7
20260905044655 60 70 1.7 1.7 0.00 0.00 0.00 79 1015.6
20260905044150 60 35 2.6 2.6 0.00 0.00 0.00 78 1015.6
20260905043649 60 46 2.6 2.6 0.00 0.00 0.00 77 1015.7
20260905043144 60 17 1.7 1.7 0.00 0.00 0.00 77 1015.7
20260905042643 60 51 3.5 5.2 0.00 0.00 0.00 76 1015.7
20260905042137 60 23 4.3 5.2 0.00 0.00 0.00 75 1015.6
20260905041633 60 55 3.5 5.2 0.00 0.00 0.00 75 1015.7
20260905041129 60 62 3.5 5.2 0.00 0.00 0.00 76 1015.7
20260905040629 60 72 1.7 1.7 0.00 0.00 0.00 76 1015.9
20260905040127 60 58 3.5 4.3 0.00 0.00 0.00 77 1015.7
20260905035623 60 57 2.6 4.3 0.00 0.00 0.00 77 1015.9
20260905035119 60 80 3.5 4.3 0.00 0.00 0.00 77 1015.6
20260905034614 60 75 0.9 1.7 0.00 0.00 0.00 77 1015.6
20260905034109 61 32 2.6 4.3 0.00 0.00 0.00 77 1015.6
20260905033608 61 31 3.5 5.2 0.00 0.00 0.00 76 1015.7
20260905033104 61 58 2.6 4.3 0.00 0.00 0.00 76 1015.5
20260905032604 61 68 5.2 6.1 0.00 0.00 0.00 75 1015.3
20260905032104 61 55 0.9 2.6 0.00 0.00 0.00 75 1015.7
20260905031559 61 67 2.6 2.6 0.00 0.00 0.00 74 1015.6
20260905031059 61 71 2.6 4.3 0.00 0.00 0.00 74 1015.3
20260905030554 62 63 2.6 4.3 0.00 0.00 0.00 76 1015.2
20260905030049 62 67 1.7 4.3 0.00 0.00 0.00 75 1015.3
20260905025545 62 60 3.5 5.2 0.00 0.00 0.00 74 1015.1
20260905025041 63 43 4.3 6.1 0.00 0.00 0.00 72 1015.3
20260905024536 63 75 0.9 1.7 0.00 0.00 0.00 71 1015.1
20260905024031 63 73 1.7 2.6 0.00 0.00 0.00 70 1014.8
20260905023527 63 142 1.7 1.7 0.00 0.00 0.00 70 1015.1
20260905023021 64 52 1.7 1.7 0.00 0.00 0.00 70 1015.0
20260905022521 64 64 2.6 2.6 0.00 0.00 0.00 70 1015.0
20260905022016 64 116 2.6 2.6 0.00 0.00 0.00 70 1015.1
20260905021515 64 85 2.6 4.3 0.00 0.00 0.00 69 1015.0
20260905021011 64 74 0.9 1.7 0.00 0.00 0.00 69 1015.1
20260905020505 64 97 5.2 6.1 0.00 0.00 0.00 69 1015.1
20260905015959 64 138 4.3 6.1 0.00 0.00 0.00 70 1014.9
20260905015458 64 146 5.2 7.0 0.00 0.00 0.00 70 1014.9
20260905014957 64 50 4.3 5.2 0.00 0.00 0.00 70 1015.2
20260905014453 65 56 3.5 6.1 0.00 0.00 0.00 69 1014.9
20260905013948 66 86 0.9 2.6 0.00 0.00 0.00 68 1014.7
20260905013444 66 40 5.2 7.8 0.00 0.00 0.00 66 1014.8